Wind_Speed
33 34 36 38 39 41 44 47 47 46 44 41 38 35 34 34 34 35 35 36 36 36 36 37 37 38 38 39 39 40 39 39 39 38 38 38 39 39 38 38 38 38 39 39 40 42 45 48 52 55 56 57 58 57 55 50 45 40 37 35 33 30 27 25 24 23 24 26 27 28 28 28 30 34 37 36 34 32 29 23 18 15 14 14 13 12
36 36 37 38 39 40 42 45 46 44 42 40 38 37 36 36 36 37 38 39 39 39 39 39 39 40 41 42 42 43 43 42 41 40 39 38 38 38 38 38 38 38 38 39 39 41 43 48 52 56 57 59 59 59 57 51 46 41 38 35 33 31 28 26 24 24 25 27 29 30 30 29 31 35 38 38 36 34 30 24 19 16 16 15 15 14
36 36 37 37 38 40 41 44 45 45 43 41 39 38 37 38 39 40 42 43 43 43 42 42 41 42 42 44 45 45 45 45 44 42 40 39 38 37 37 37 37 38 38 38 38 39 42 46 51 56 59 60 61 60 57 52 46 42 38 36 33 31 28 26 25 24 25 27 29 31 31 29 31 35 39 39 38 35 31 25 20 18 17 17 16 15
38 36 37 37 38 39 41 43 44 44 43 41 40 39 38 39 41 42 44 45 46 46 46 46 45 45 46 46 47 47 47 46 45 43 42 40 39 38 37 37 37 37 36 36 36 37 40 44 50 55 60 62 62 61 57 52 47 43 39 36 34 31 28 27 26 25 25 27 30 31 31 31 33 36 39 40 39 36 31 25 21 19 18 17 17 16
41 39 39 39 39 40 42 44 44 43 42 40 39 39 39 40 42 43 45 46 47 48 48 49 49 49 49 50 50 50 48 47 45 43 42 40 39 39 38 38 37 36 35 34 34 35 38 42 47 53 59 62 62 60 56 52 47 43 39 36 34 31 28 27 26 25 25 27 29 31 31 32 35 38 40 40 38 35 31 26 22 20 19 18 16 15
42 41 41 41 41 42 44 45 45 43 41 40 39 39 39 41 42 43 44 45 46 47 48 49 50 50 51 50 50 49 47 44 42 41 40 39 39 38 38 37 36 35 34 33 32 33 36 40 45 51 57 60 61 59 55 51 46 42 39 36 34 31 29 27 26 25 25 27 29 30 31 33 36 39 40 39 37 34 30 26 23 21 19 17 16 15
42 42 43 43 45 46 48 48 47 45 42 40 40 40 41 41 42 42 43 44 44 45 46 47 48 48 48 47 46 44 42 40 38 37 37 36 36 36 36 36 35 34 33 31 30 31 34 38 43 49 55 58 59 57 54 50 45 41 38 36 33 31 29 27 26 25 26 27 28 30 31 34 37 39 39 37 35 32 29 27 24 21 19 17 16 15
42 44 45 46 47 49 49 49 49 47 44 42 41 41 42 42 42 41 41 42 42 42 42 43 43 43 42 41 39 38 37 36 35 34 34 34 34 34 34 34 34 33 32 30 29 30 33 37 43 48 54 57 58 57 53 49 44 40 37 35 33 30 28 27 26 26 26 27 28 29 31 33 36 37 36 34 32 30 28 27 24 21 19 17 16 16
42 44 45 47 47 47 47 47 47 45 43 41 40 40 40 40 40 40 39 39 39 38 38 38 37 37 36 35 35 34 34 33 33 32 32 32 32 32 32 32 32 31 30 28 27 29 32 37 43 49 54 57 58 56 52 47 43 39 37 35 32 30 28 27 26 26 28 28 28 29 30 32 33 34 33 32 30 29 28 26 24 21 19 18 17 16
41 41 42 42 43 42 41 41 41 40 38 37 36 37 37 37 37 37 36 36 35 34 33 33 33 33 33 32 32 33 33 33 32 32 31 31 31 31 30 30 30 30 29 27 26 28 31 37 44 50 54 56 56 54 50 45 41 38 36 34 32 30 28 27 27 27 29 29 30 31 32 33 33 32 32 30 29 28 27 25 23 21 19 18 17 17
38 37 36 35 35 35 34 35 35 34 32 31 31 32 33 34 33 33 32 32 31 30 29 29 30 30 31 31 31 32 32 33 32 32 31 30 30 29 29 29 28 28 27 25 25 27 31 38 45 50 54 55 53 51 47 42 39 37 35 33 31 29 28 28 27 28 29 30 32 34 35 35 34 33 31 30 28 27 25 23 22 20 19 18 18 18
35 34 33 31 29 28 28 28 28 28 27 27 27 28 29 29 29 28 28 28 27 26 27 27 28 28 29 30 30 31 32 32 32 31 30 30 29 28 27 27 26 26 24 23 23 26 32 39 46 51 53 52 50 47 43 39 37 36 34 33 31 29 28 28 27 28 29 31 33 35 37 36 35 33 31 29 27 25 24 22 21 20 19 18 18 19
32 31 30 28 27 25 24 24 23 23 23 23 25 26 26 25 24 24 25 25 25 26 27 27 28 28 28 28 29 30 31 31 31 31 30 29 27 26 24 24 24 23 22 22 23 28 34 41 47 50 50 49 47 43 40 37 35 35 33 32 31 30 28 28 28 28 29 31 33 34 35 35 33 32 30 28 26 24 23 22 21 20 19 19 19 20
29 28 27 27 25 24 23 22 22 21 21 22 22 23 23 23 23 23 25 26 26 26 27 29 29 29 29 29 29 29 29 30 30 30 29 28 27 25 23 22 21 21 21 22 25 31 37 43 46 47 47 45 43 40 37 35 34 33 32 31 30 29 28 28 28 29 30 31 32 33 34 33 32 31 29 28 26 24 23 21 20 20 20 20 21 21
29 28 28 27 27 26 25 24 24 23 23 22 22 22 22 23 24 25 27 28 28 28 29 30 30 31 31 30 29 29 28 29 29 29 28 28 26 24 22 20 20 20 20 22 27 32 38 43 46 45 44 43 40 37 35 33 32 31 29 28 28 28 27 27 28 29 31 32 33 33 33 32 31 30 28 27 25 23 22 21 21 21 21 22 22 21
30 30 30 30 30 29 28 27 27 26 25 24 24 24 25 26 27 27 28 29 30 30 30 30 31 31 32 31 30 29 28 28 28 28 28 27 25 24 22 21 19 19 20 23 28 34 39 43 45 45 43 41 38 36 34 33 32 30 29 28 27 26 26 26 26 27 30 31 32 32 32 31 30 29 27 26 24 23 22 22 22 22 23 23 23 22
32 32 33 32 32 31 30 30 29 28 27 27 26 26 27 28 28 29 29 30 30 31 31 30 30 31 32 32 30 29 28 27 27 27 27 26 25 24 23 21 20 20 20 24 29 35 40 43 44 44 43 40 37 35 34 33 32 31 30 29 28 27 26 25 25 25 26 28 29 30 30 29 29 28 26 25 24 23 23 22 23 23 24 24 23 21
32 32 33 32 32 31 31 31 30 30 29 29 29 28 28 29 29 30 30 31 31 31 30 30 30 30 30 30 30 29 27 26 25 26 26 25 24 24 24 22 21 21 22 25 30 36 40 43 44 44 42 39 37 35 34 33 32 31 31 30 30 30 29 27 25 25 26 27 28 28 28 28 28 27 27 26 25 24 23 23 23 24 24 24 23 21
31 31 31 31 31 30 30 30 31 31 31 31 31 30 30 30 30 31 31 31 31 30 30 29 29 29 28 28 28 28 26 24 24 24 25 24 24 24 24 23 23 23 25 28 32 36 41 43 44 43 40 38 36 35 34 33 32 32 31 31 31 30 29 28 27 27 27 28 29 29 29 29 29 28 28 27 26 24 24 23 23 23 23 23 21 20
29 29 30 30 29 29 30 30 31 31 31 31 31 31 31 31 31 31 31 31 30 29 29 28 28 28 28 28 28 27 25 23 22 23 24 24 24 25 25 25 25 26 28 31 34 37 41 44 45 42 39 36 35 34 33 33 32 32 32 31 30 29 28 27 27 27 28 30 30 31 31 31 30 30 29 27 26 25 24 23 23 23 22 21 20 19
28 29 29 28 28 29 30 31 31 31 31 31 31 31 31 31 31 31 31 30 30 29 28 28 28 28 27 27 27 26 25 23 22 23 24 25 25 26 27 27 28 29 32 34 37 39 43 45 44 41 38 36 35 34 33 33 33 32 32 31 29 28 27 27 27 27 28 30 30 31 31 31 31 30 29 27 26 25 24 24 23 23 22 21 20 19
27 28 27 27 28 29 30 31 31 31 31 31 31 31 31 31 31 31 31 30 29 29 28 28 27 26 26 26 26 25 24 23 22 23 24 26 27 28 29 30 31 32 35 37 39 42 44 46 44 40 37 36 36 35 34 33 33 32 31 30 29 29 28 27 27 27 28 29 30 30 30 30 30 29 28 27 26 25 25 24 23 23 22 21 20 20
29 29 29 28 28 29 30 30 30 30 30 31 31 31 31 31 30 30 30 29 29 28 28 27 26 25 24 24 24 23 23 23 23 24 25 27 29 30 31 32 33 35 38 40 42 44 46 46 43 40 38 38 38 37 35 33 32 32 31 30 30 30 29 28 27 27 28 29 29 29 29 29 29 28 27 27 26 26 25 24 24 23 22 21 21 20
31 31 31 30 30 30 30 30 30 30 30 30 30 30 30 29 29 29 29 29 28 28 27 26 24 23 23 24 24 23 23 23 24 24 26 28 29 31 32 34 36 38 40 42 44 46 47 46 43 40 39 39 39 37 35 33 32 31 31 32 32 32 30 28 27 27 28 28 29 29 29 28 28 28 27 27 27 26 25 25 24 23 23 22 21 21
35 35 34 34 33 32 31 31 30 30 30 30 30 29 29 29 29 29 29 29 29 28 27 26 24 24 24 24 24 24 24 25 25 26 27 29 31 32 34 36 38 40 42 43 45 47 47 46 43 42 41 40 39 37 35 33 32 32 32 33 33 32 30 27 26 26 27 28 28 28 28 28 28 27 27 27 26 26 25 25 24 24 23 22 22 22
39 39 38 37 36 35 33 32 32 31 31 30 30 29 29 28 29 29 29 30 29 29 28 27 26 26 26 26 26 26 26 26 27 27 28 30 32 33 35 37 40 42 44 45 46 47 47 46 44 42 41 40 38 36 34 33 32 32 32 33 33 31 29 26 26 26 27 28 28 28 27 27 27 27 27 26 26 25 25 25 24 24 23 23 23 23
39 39 39 38 38 37 36 34 33 32 32 31 31 30 29 29 29 30 31 31 31 30 29 28 28 27 28 28 28 28 28 28 28 29 30 31 33 35 37 39 41 44 46 46 47 47 47 46 44 43 42 40 38 36 34 33 32 32 32 33 32 30 27 26 25 26 27 27 27 27 27 27 27 26 26 25 25 24 24 24 24 24 23 23 23 23
34 35 37 38 38 38 37 36 35 34 33 32 31 31 30 30 31 32 33 33 32 31 31 30 30 30 30 30 31 30 29 29 30 31 31 32 35 37 38 40 42 45 47 48 47 47 47 46 45 44 42 41 39 37 35 34 32 32 32 31 30 29 26 25 25 26 27 27 27 27 27 26 26 26 25 24 24 23 23 23 23 23 23 23 23 24
29 32 33 35 36 37 38 37 36 35 34 33 32 32 32 32 33 34 34 33 33 32 32 32 32 31 31 31 31 31 30 30 31 32 32 34 36 39 39 41 44 46 49 49 48 47 47 47 46 45 44 42 40 38 37 35 33 32 31 30 29 27 26 25 25 26 27 27 27 27 26 26 26 25 25 24 23 22 22 22 22 23 23 23 23 24
25 27 29 31 33 35 36 37 37 36 35 34 33 33 33 34 34 34 34 34 34 33 33 33 33 33 32 31 31 31 32 32 33 34 34 36 38 40 41 43 45 48 49 50 49 47 47 47 47 47 46 44 42 40 39 37 36 34 32 31 29 28 26 26 26 26 27 27 27 26 26 26 26 25 24 24 23 22 21 22 22 23 23 23 23 24
22 23 25 27 28 30 32 35 36 36 36 35 34 34 34 35 35 35 34 35 35 34 34 34 34 34 34 33 31 32 33 35 35 35 35 37 40 42 43 44 47 49 50 51 50 49 47 48 48 48 47 46 44 42 41 39 38 36 34 33 31 29 28 27 27 27 27 27 26 26 26 26 25 25 24 24 23 22 22 22 23 23 23 23 23 24
25 24 24 24 25 26 28 31 33 35 35 36 35 35 36 36 36 35 35 36 35 35 34 34 34 35 35 35 34 34 34 35 36 37 37 38 40 42 44 45 47 50 51 52 53 51 48 49 49 49 48 47 46 44 43 41 39 37 36 35 33 32 30 29 28 28 28 27 27 26 26 26 25 25 24 24 23 22 22 23 23 24 23 24 24 24
30 28 27 25 25 25 26 28 30 32 34 35 36 36 37 37 37 37 37 37 36 36 35 35 35 35 35 36 36 35 35 35 36 36 37 39 41 43 45 46 48 50 52 53 54 54 52 53 53 51 49 47 47 46 45 43 41 39 37 36 35 33 32 30 30 29 29 28 28 27 26 26 26 25 24 24 23 23 23 24 24 24 24 24 24 25
35 33 31 29 28 27 27 28 29 30 32 34 35 36 37 37 37 38 38 38 38 37 36 36 36 36 37 36 36 36 36 36 36 36 37 39 42 44 45 47 49 51 53 54 54 53 53 54 55 54 51 48 47 47 46 45 42 40 38 37 36 34 33 32 31 31 30 29 29 28 28 27 27 26 25 25 24 24 24 24 24 24 24 24 24 25
36 36 35 33 30 29 28 28 29 29 30 32 34 35 36 37 37 38 38 39 39 38 38 37 37 38 38 38 38 38 38 39 37 36 36 38 41 43 45 48 50 52 54 55 55 53 51 52 54 55 54 50 48 47 47 46 44 42 40 39 37 36 34 32 32 31 31 30 30 29 29 29 28 28 27 26 26 25 25 25 24 23 23 23 24 25
34 35 35 34 32 31 30 29 29 29 29 30 32 34 36 36 37 38 39 39 40 39 39 38 38 39 39 39 39 39 39 39 38 36 35 36 38 42 45 47 50 52 54 56 57 55 52 51 53 55 56 53 51 49 48 46 45 43 42 41 39 37 35 33 32 31 31 31 31 30 30 30 29 29 28 27 27 26 26 25 24 23 23 23 23 24
33 34 34 34 33 33 32 31 30 29 29 29 31 33 35 36 36 37 38 39 40 40 40 40 39 39 40 40 40 39 39 38 37 35 34 34 36 40 43 46 48 51 54 56 57 57 54 52 51 52 55 55 54 52 49 48 46 44 43 42 41 39 36 34 33 32 32 32 31 31 31 30 30 30 29 28 27 27 26 25 24 24 23 23 23 24
32 32 33 33 33 33 34 33 32 30 29 29 30 32 34 35 36 36 37 38 39 40 41 41 40 40 41 40 40 39 38 37 35 34 32 32 34 37 40 44 46 49 52 55 57 58 56 53 51 51 52 54 55 54 52 49 47 46 44 43 42 40 37 36 34 34 33 33 32 32 32 31 31 31 30 29 29 28 28 27 26 25 24 24 24 25
32 32 32 32 31 32 33 34 34 32 30 29 30 32 33 34 35 36 37 38 39 40 41 41 42 42 41 40 39 38 38 37 35 33 31 31 32 34 37 41 45 48 51 54 57 58 57 55 54 53 53 53 53 53 53 51 49 47 46 44 42 41 39 37 36 35 35 34 34 34 33 33 32 32 31 31 30 30 29 28 28 27 26 26 26 26
32 32 32 31 30 30 31 34 34 33 31 29 29 31 32 33 34 35 36 37 38 39 40 41 42 42 42 40 39 38 37 36 34 33 31 31 30 31 34 37 41 45 49 52 55 57 57 56 56 56 56 54 54 53 53 51 50 49 48 46 44 42 41 39 38 37 36 36 35 35 35 34 34 33 33 32 32 31 31 30 29 28 28 28 28 29
30 31 32 31 30 30 31 33 34 34 32 30 29 30 32 33 34 35 36 37 38 39 40 42 42 43 42 41 39 38 37 36 35 33 32 31 30 30 31 33 36 41 46 51 54 55 57 56 55 55 55 55 55 54 53 52 51 50 49 47 46 44 42 41 39 39 38 37 37 36 36 36 35 34 34 33 33 32 31 30 29 29 28 29 30 31
30 31 32 31 30 29 30 31 33 34 33 31 30 30 32 33 34 35 37 38 39 40 41 42 43 43 43 42 40 39 38 37 36 34 33 31 30 30 30 31 33 38 44 49 52 54 55 55 55 54 54 54 54 54 53 52 51 50 49 47 46 44 42 41 41 40 39 39 38 38 37 37 36 36 35 34 34 33 32 31 30 29 30 30 31 32
29 30 29 29 29 28 28 29 31 33 33 32 31 31 32 32 33 35 37 38 39 41 41 42 43 44 44 43 42 41 40 39 37 36 34 33 32 31 31 31 32 35 41 47 51 53 54 54 54 54 54 54 54 54 54 53 52 50 48 47 45 44 43 43 42 42 41 40 40 39 39 38 37 36 35 35 34 33 32 31 31 30 31 31 32 33
30 29 29 28 28 28 28 29 31 32 33 33 32 32 32 32 33 35 36 38 39 40 41 42 43 44 44 44 44 43 42 41 39 38 36 35 33 32 32 32 32 34 38 44 49 52 53 53 52 53 53 53 54 54 53 52 51 49 48 46 45 45 45 45 44 43 43 42 41 41 40 39 38 37 36 35 35 34 33 33 32 32 32 32 33 35
32 32 32 30 29 29 29 30 31 32 32 33 33 32 32 32 33 34 36 38 39 40 42 43 43 44 44 45 45 44 44 43 42 40 39 37 36 34 34 33 33 34 37 41 46 50 52 52 52 52 52 53 53 53 52 51 49 47 46 45 44 44 44 44 44 44 44 44 43 43 42 41 39 38 37 36 36 35 34 34 33 33 33 34 35 36
33 34 33 31 29 29 29 29 30 30 31 32 33 33 32 32 33 34 36 37 39 40 42 43 44 44 45 46 46 45 45 44 44 42 41 40 38 37 36 35 34 35 37 41 45 48 51 52 53 52 51 51 51 51 50 48 47 45 44 44 44 43 44 44 44 44 44 44 44 44 43 42 41 39 38 37 37 36 35 34 34 33 34 35 36 37
30 30 29 28 28 28 28 29 29 30 31 32 32 33 33 33 33 34 36 37 39 41 42 43 44 45 46 46 47 47 46 46 45 44 43 42 41 40 38 37 36 36 38 41 45 48 50 51 52 52 52 51 49 48 48 46 45 44 43 43 43 43 44 45 45 45 45 45 45 45 44 43 42 40 40 39 38 37 36 35 35 34 34 35 36 37
29 29 28 27 26 26 26 27 28 30 31 31 32 32 33 33 34 35 36 38 39 41 42 44 45 45 46 47 48 48 48 47 47 46 46 44 43 42 41 40 39 39 40 42 45 47 48 49 50 51 52 52 51 49 47 46 45 44 44 43 43 43 44 44 44 44 45 45 46 45 45 44 43 42 41 40 39 38 38 37 36 35 35 35 36 37
29 29 30 29 28 26 26 27 28 29 30 31 31 32 33 33 34 35 37 38 39 41 43 45 45 45 45 46 47 48 48 47 47 47 47 46 45 44 43 43 43 43 44 45 46 47 47 47 48 49 50 50 50 49 48 46 45 45 44 44 43 43 43 44 44 44 45 45 45 45 45 44 44 43 42 42 41 40 39 38 38 37 36 36 36 36
27 28 29 29 29 28 28 28 28 29 30 31 31 32 33 33 34 35 37 38 40 41 43 45 46 45 45 46 47 48 48 47 47 47 47 47 47 46 46 46 46 46 45 46 46 46 46 46 46 47 48 47 47 47 47 46 46 45 44 44 43 43 43 44 44 44 44 44 45 45 44 44 43 43 42 42 42 41 41 40 39 38 37 36 36 35
27 27 28 28 29 29 29 29 30 30 31 31 31 32 33 34 35 36 37 39 41 42 43 44 45 46 46 46 47 48 48 48 47 47 47 48 48 48 48 48 48 48 47 46 45 45 45 44 43 43 45 46 46 45 44 46 46 46 45 44 43 43 42 42 42 43 43 43 44 44 44 44 44 44 44 43 43 42 42 41 41 40 39 37 36 36
Wind_Direction
254 257 260 261 261 261 261 262 260 257 256 257 260 262 264 266 268 271 274 276 277 277 277 277 277 278 278 278 279 280 280 280 279 276 271 266 261 258 256 256 257 259 260 260 259 257 255 253 252 251 251 251 250 248 245 239 232 225 220 219 219 219 218 220 222 224 224 221 218 217 217 215 213 211 209 207 206 208 210 211 209 206 204 208 213 217
255 256 258 259 259 258 258 259 257 255 255 257 259 262 265 268 270 272 274 276 277 278 277 277 278 278 279 280 281 282 283 283 283 280 275 269 263 259 256 255 255 256 257 258 258 257 254 251 248 248 249 250 250 248 244 238 231 225 219 217 217 217 216 218 220 221 221 219 217 217 218 216 213 211 209 208 209 211 213 213 212 210 210 213 218 222
256 256 257 257 256 256 256 257 257 257 257 259 261 263 266 268 270 271 273 274 276 277 277 278 278 279 280 281 283 284 284 285 284 281 277 272 266 262 258 256 255 255 256 257 257 256 254 249 246 245 245 247 247 245 241 236 230 224 218 216 215 214 214 217 218 219 219 218 217 217 218 215 213 211 210 210 212 214 215 216 216 215 215 218 222 226
256 255 256 256 255 255 256 258 259 260 261 262 263 264 266 268 269 270 270 272 274 275 277 278 279 280 281 282 283 284 284 284 283 281 278 274 270 266 262 259 257 256 256 256 257 256 254 250 246 244 243 243 243 242 238 234 229 223 217 215 213 212 212 215 217 216 216 217 217 216 216 214 212 212 212 213 214 216 217 218 218 218 219 222 226 230
255 253 253 253 253 254 257 259 261 262 263 264 265 266 267 268 269 269 269 271 272 274 276 277 279 280 281 282 282 282 282 282 281 279 277 274 271 268 265 262 259 257 256 256 257 256 255 252 248 245 242 241 240 238 235 232 227 221 215 213 211 211 211 214 214 214 215 217 216 214 213 211 211 212 212 213 215 217 217 218 219 221 223 226 231 236
254 253 252 251 253 256 259 261 262 263 263 264 266 267 268 269 269 269 270 271 272 273 275 276 277 278 278 278 278 278 278 277 276 274 272 271 269 268 265 263 260 257 256 256 257 257 256 254 250 246 242 239 237 235 233 230 225 218 212 210 209 209 210 212 212 211 214 216 215 212 210 209 210 211 211 213 215 216 217 219 221 224 227 231 237 243
254 255 255 255 257 259 262 263 264 263 262 263 265 266 268 268 269 269 270 270 271 272 273 274 274 274 274 274 273 273 272 270 269 268 268 268 267 266 264 262 258 256 254 255 257 257 257 255 252 247 242 239 236 234 231 227 220 214 209 208 207 208 209 210 209 209 212 214 213 211 209 209 210 211 211 213 216 217 219 220 223 226 230 236 241 247
256 258 259 259 260 261 262 262 263 262 261 261 262 264 266 266 267 267 268 268 268 269 269 270 270 269 269 268 267 266 265 264 264 264 265 265 266 265 263 260 257 254 253 254 255 256 255 254 251 247 242 238 235 232 228 223 216 210 206 206 206 206 207 206 206 207 210 213 214 212 209 209 210 212 213 216 218 220 220 222 224 227 232 237 242 247
256 256 257 258 258 258 258 258 259 258 258 258 259 260 261 262 262 263 263 263 263 264 264 264 264 263 263 262 262 262 262 262 262 263 264 264 264 264 262 259 256 254 253 252 253 253 252 251 248 245 241 237 233 229 224 218 211 206 204 204 204 204 204 203 203 204 207 212 215 214 211 209 210 213 215 218 220 221 221 222 224 227 232 237 241 244
252 251 252 253 253 252 251 251 252 252 252 253 254 256 256 256 257 257 258 258 258 259 258 258 259 259 260 260 261 262 262 262 263 263 263 264 264 263 261 259 257 254 252 250 249 249 249 247 245 241 237 233 229 224 219 213 207 203 202 202 202 202 201 200 201 203 204 210 214 215 213 211 211 213 215 217 218 219 219 221 224 227 231 235 238 240
248 247 247 247 247 246 245 246 247 248 248 248 249 250 251 251 251 253 254 255 255 254 254 254 256 258 260 262 263 264 265 264 264 263 263 263 262 261 260 258 256 254 251 247 245 245 245 244 241 237 232 228 223 218 213 208 203 201 201 201 200 200 199 199 200 202 204 207 211 213 212 212 211 212 213 214 215 216 218 220 223 227 230 233 236 236
247 246 246 246 246 245 245 245 246 247 246 244 244 244 245 246 246 248 250 252 253 254 255 257 258 260 263 264 266 266 266 265 264 263 262 261 260 259 258 256 254 251 247 243 241 242 243 241 237 233 227 222 217 213 208 204 201 200 200 200 199 198 197 198 201 203 204 205 208 210 211 210 210 211 212 212 213 215 218 221 224 227 230 233 234 234
247 246 246 246 247 247 247 246 246 245 244 242 241 242 243 243 244 245 248 250 253 256 260 262 264 264 264 265 265 265 265 264 263 262 260 258 257 256 255 253 250 247 242 238 237 238 238 236 232 227 221 216 211 208 204 201 200 200 200 199 198 197 197 198 200 202 204 205 207 208 209 210 211 211 213 214 216 219 221 224 227 229 232 233 233 232
245 245 245 246 246 247 247 246 246 245 244 242 242 242 243 245 246 248 250 253 255 258 261 265 266 267 266 265 265 264 264 263 262 260 258 256 255 254 252 251 248 244 239 235 233 233 232 229 224 219 214 210 207 204 201 200 199 199 200 199 198 197 197 198 199 200 202 204 206 207 209 211 213 215 217 219 221 223 225 227 229 232 234 234 233 233
244 244 244 245 246 247 247 247 247 247 247 247 247 247 247 248 250 251 253 256 258 260 262 264 266 267 267 266 265 264 263 262 260 259 257 255 254 253 252 250 247 244 239 236 232 230 227 223 217 211 207 206 204 202 199 198 198 198 198 199 199 198 198 199 200 201 202 204 206 208 210 213 216 219 221 223 224 225 227 230 232 234 235 235 234 234
248 247 246 247 247 248 249 249 249 249 249 250 249 249 248 249 251 253 255 257 260 261 263 265 266 267 267 265 265 264 263 262 260 259 257 256 256 255 253 251 248 245 241 237 233 228 223 217 211 206 204 203 202 200 198 197 196 195 194 196 197 199 200 201 203 204 206 208 210 212 214 216 219 221 223 225 226 227 229 232 234 236 236 235 236 237
251 249 249 249 249 250 251 251 251 251 251 250 249 249 249 249 251 253 256 258 261 263 264 265 267 268 268 267 266 264 264 262 261 259 258 258 257 255 253 251 248 246 242 238 232 225 219 213 207 203 202 201 200 199 198 196 195 193 192 193 194 197 199 202 205 208 211 213 215 216 218 220 222 224 226 227 228 228 230 232 234 235 236 236 237 238
252 251 250 250 251 252 253 253 254 253 252 251 250 250 250 251 253 255 258 260 262 264 265 265 265 266 267 269 269 266 264 263 261 260 259 258 256 254 252 249 247 246 243 237 230 223 217 210 204 201 201 200 199 198 197 196 195 193 192 192 193 194 196 199 203 208 212 215 217 219 220 221 223 224 226 227 227 228 230 232 233 234 235 236 237 237
253 253 252 252 253 255 255 255 255 255 254 253 252 252 253 254 256 258 261 263 264 265 266 266 265 265 266 267 268 268 266 264 261 259 258 257 253 250 248 246 243 242 240 234 227 221 214 207 203 201 200 199 198 198 197 196 195 193 193 192 193 193 195 198 202 207 211 214 216 218 219 221 222 223 224 225 226 228 229 231 232 233 234 235 235 234
255 256 256 257 258 258 258 258 258 257 256 255 255 255 256 257 259 262 264 265 267 267 267 267 267 267 266 266 266 267 266 264 260 257 254 253 249 245 243 240 237 235 233 230 224 218 211 205 202 200 200 199 198 198 198 197 195 194 193 192 193 194 196 199 204 208 212 214 216 217 219 220 221 222 224 224 226 227 228 230 231 232 233 234 233 230
257 258 259 260 259 259 260 261 260 259 257 257 257 257 258 260 261 264 265 267 268 268 268 268 268 267 266 265 265 265 265 262 257 252 250 248 245 240 237 234 231 229 227 225 221 215 209 204 201 200 200 199 199 199 198 197 195 194 193 192 193 195 198 202 206 210 213 215 216 217 219 220 222 222 223 224 225 226 227 229 230 232 233 232 230 226
254 255 256 257 258 260 261 262 262 261 260 259 259 259 259 261 263 265 267 268 269 269 269 269 268 267 266 265 264 264 262 260 255 250 246 242 238 234 231 229 227 225 223 221 218 213 208 203 201 200 200 200 200 200 199 198 196 194 193 193 195 197 200 203 208 212 215 216 216 217 219 220 221 222 222 222 223 225 226 228 230 231 232 230 227 224
251 252 254 255 257 259 260 262 262 262 262 261 261 261 262 263 266 267 269 270 270 270 270 269 267 265 263 262 262 261 258 256 252 248 244 239 233 230 227 225 222 220 220 218 215 211 207 203 201 200 201 201 200 200 199 198 197 196 195 196 197 199 201 205 210 213 215 215 215 216 218 219 220 220 220 221 222 224 226 228 229 231 230 228 225 222
253 253 254 254 255 257 258 259 260 261 261 261 262 262 264 266 268 268 269 269 268 268 267 265 262 260 258 257 256 254 252 250 247 244 241 238 234 230 226 222 218 216 215 215 213 210 207 203 201 200 200 200 200 199 199 199 198 198 198 198 199 201 203 208 212 214 214 214 214 215 216 218 218 219 219 220 221 223 225 227 229 229 228 226 223 220
254 254 253 253 253 254 255 256 257 259 260 261 262 263 265 266 267 268 267 265 263 262 260 258 255 253 251 251 250 248 246 245 243 241 237 236 234 230 225 221 217 213 213 213 212 209 206 203 201 200 199 198 198 198 198 198 199 199 200 200 201 203 206 210 213 214 213 212 212 213 214 216 217 218 218 219 221 222 224 226 227 227 226 223 221 219
254 253 252 251 251 251 251 253 254 256 257 258 260 261 262 263 264 264 263 261 259 257 255 251 248 247 246 246 245 243 242 241 240 238 235 234 231 228 223 220 216 213 212 211 209 207 205 203 201 199 197 196 195 195 196 197 199 200 201 201 202 205 208 212 214 213 211 211 211 212 213 214 216 217 218 219 220 221 223 224 224 224 223 221 219 218
254 253 251 250 249 248 248 249 250 252 254 255 256 257 257 258 259 259 258 257 256 255 251 247 244 243 243 242 242 240 239 237 236 235 234 232 230 226 222 219 215 212 210 209 207 205 203 201 200 198 195 193 192 192 194 196 199 200 201 203 204 207 210 213 213 212 210 210 210 211 212 214 215 216 217 218 218 219 220 221 222 221 220 219 218 218
256 254 252 250 248 247 246 246 247 248 250 251 252 252 252 252 253 253 254 255 255 253 250 245 242 240 240 240 239 239 237 234 232 232 232 230 228 225 222 219 215 212 209 206 205 203 201 199 198 196 194 192 191 191 193 195 198 200 202 204 206 209 212 213 212 211 210 209 210 211 212 214 215 216 216 217 217 217 217 218 219 219 219 218 218 218
263 259 256 253 250 248 246 245 245 246 247 248 249 249 249 248 249 250 251 253 253 251 249 246 242 240 239 239 239 238 236 233 231 231 230 226 224 224 223 219 215 212 209 205 203 200 198 197 196 194 192 191 191 191 193 195 197 199 201 204 207 209 211 211 210 209 209 209 210 211 212 214 215 216 216 216 216 215 216 216 217 218 218 219 219 219
270 269 266 261 256 252 248 246 245 244 245 246 247 247 247 246 246 247 249 250 250 249 247 245 243 240 238 237 236 235 233 232 231 229 227 222 221 222 222 218 215 213 210 205 199 195 195 196 195 194 192 191 191 192 194 195 196 197 199 202 204 206 207 207 207 207 208 209 210 211 213 215 216 217 217 217 216 216 216 217 218 219 220 220 220 220
271 273 273 270 266 261 255 250 246 244 244 244 245 245 245 245 245 245 245 246 247 247 246 245 243 240 238 234 230 229 231 231 230 227 225 221 220 221 222 217 215 214 213 208 200 193 192 194 195 194 192 191 191 194 196 197 197 197 198 199 200 202 202 203 204 205 207 208 210 212 213 215 217 218 218 218 217 217 218 219 221 222 222 221 221 221
267 266 267 269 269 267 262 256 250 246 243 243 243 244 244 244 244 243 243 243 244 245 244 243 242 240 239 236 233 232 234 233 230 227 224 220 220 222 223 219 216 214 215 212 206 200 195 194 195 194 192 191 192 194 197 198 197 198 199 199 199 199 200 200 201 203 205 207 209 211 213 215 217 218 218 218 218 218 219 221 223 223 223 222 221 220
266 264 264 266 267 266 263 259 254 249 244 242 242 242 243 244 243 242 242 242 242 242 242 241 239 239 238 238 238 238 239 238 235 230 225 220 219 220 222 221 217 214 213 210 208 206 202 199 197 195 193 192 192 193 195 196 197 198 200 200 200 200 199 199 200 202 204 206 208 210 212 214 215 216 217 217 217 218 219 222 223 223 223 221 220 219
268 266 265 266 267 266 264 261 258 253 248 244 242 242 242 243 243 243 242 242 241 241 241 239 238 237 237 237 238 238 238 240 239 235 228 222 220 220 221 220 218 215 211 207 204 204 204 203 200 196 194 193 192 192 193 194 195 197 200 201 201 201 200 200 201 202 204 206 207 208 210 212 213 214 215 215 216 217 219 221 222 223 222 221 220 219
273 269 267 266 267 268 268 265 262 257 252 247 244 242 242 243 244 244 243 242 241 241 240 240 239 238 237 237 237 237 236 239 240 237 231 225 222 222 221 220 219 216 211 207 203 201 201 202 201 198 195 193 193 193 193 193 194 196 199 200 201 201 201 202 203 204 205 206 208 209 210 211 212 213 214 214 215 216 218 219 221 221 221 221 221 220
278 274 270 267 266 267 267 266 262 259 255 250 246 244 243 244 245 245 245 244 242 241 241 240 239 239 238 239 239 239 239 241 241 239 234 229 226 223 220 220 220 218 213 208 205 202 201 201 201 199 196 194 193 193 194 193 193 194 196 198 199 200 201 204 206 207 208 209 209 210 212 212 213 213 214 214 214 215 217 218 220 220 221 221 221 221
279 276 272 268 266 265 265 264 262 259 256 253 250 247 245 245 246 247 246 245 244 243 241 240 239 239 238 239 239 241 242 244 244 242 237 233 229 225 222 222 222 220 215 210 206 204 202 201 199 198 196 195 194 194 195 194 193 193 194 196 197 198 200 203 207 209 210 211 212 213 214 214 214 215 215 214 214 214 216 217 219 219 220 220 219 219
276 275 273 269 266 264 264 263 261 259 256 254 253 251 249 248 248 249 249 248 247 245 243 241 239 238 238 237 238 239 241 242 243 242 239 235 231 228 225 224 224 222 218 214 210 206 203 201 198 195 194 195 196 196 196 194 193 193 194 196 197 198 199 203 207 209 211 212 213 214 215 216 216 215 215 214 214 214 214 215 217 217 217 217 216 214
273 273 272 269 266 264 263 262 261 259 257 255 255 254 253 252 252 252 252 252 250 248 245 243 241 239 238 237 237 237 238 239 239 239 238 236 233 230 228 226 224 222 220 216 212 209 207 205 202 199 196 194 195 196 196 195 194 194 195 196 197 198 200 203 206 209 211 212 213 214 215 216 216 215 215 214 214 214 214 215 215 215 214 212 210 209
272 271 270 268 266 263 262 261 260 259 258 257 257 257 257 256 255 255 255 254 252 250 247 245 242 240 238 237 236 236 237 237 237 237 236 236 234 232 230 229 227 224 220 216 212 210 209 208 207 206 202 198 195 195 196 195 195 195 195 195 196 198 199 203 206 209 211 212 213 214 215 216 216 215 215 215 215 216 216 216 216 216 215 210 205 203
271 271 270 269 266 263 261 260 260 259 259 259 259 259 258 257 256 256 255 254 252 250 247 245 242 240 239 237 236 236 236 236 236 235 235 234 233 232 232 232 231 227 222 216 213 211 211 210 209 207 205 201 199 198 197 197 197 197 197 197 198 199 200 202 205 207 210 212 213 215 216 216 216 215 215 215 216 217 218 218 217 217 216 212 208 204
270 271 271 270 268 264 262 261 261 260 259 259 259 258 257 256 255 255 254 252 250 248 246 244 241 239 237 236 235 234 234 234 234 234 234 233 232 232 232 233 233 230 225 219 214 212 212 211 210 209 207 204 201 199 199 199 199 199 199 200 200 201 201 203 205 207 208 210 212 214 215 216 216 216 215 215 216 217 217 217 218 217 215 212 211 210
270 270 271 271 269 265 263 262 261 260 258 257 257 257 257 256 255 255 254 253 251 249 247 244 242 239 236 234 233 232 232 232 233 233 233 232 231 230 230 231 232 231 227 221 216 213 212 212 211 211 211 210 206 203 201 200 200 200 200 201 202 202 201 203 205 207 208 210 212 213 215 216 216 216 216 215 215 216 216 216 216 217 216 213 210 210
273 273 273 272 269 266 263 261 260 259 257 255 254 254 256 256 256 255 254 253 252 250 248 246 243 240 236 233 232 230 229 229 230 230 231 230 230 229 229 230 231 231 230 224 218 214 212 210 210 211 213 212 210 207 205 203 201 201 201 203 204 205 206 207 207 207 208 209 211 213 214 215 215 215 215 215 215 215 215 215 215 215 215 214 211 209
275 275 275 272 269 266 262 260 259 258 257 253 251 253 255 256 256 256 255 254 252 249 247 244 241 236 232 231 230 229 227 226 226 227 228 228 228 228 228 229 229 230 230 228 224 219 213 210 209 210 211 212 211 209 207 205 204 203 203 204 206 209 211 212 212 210 209 210 211 212 214 215 215 214 214 215 215 216 216 215 215 214 213 213 211 209
275 273 270 267 265 263 261 259 258 257 255 252 250 251 254 255 256 255 255 254 252 249 246 244 239 233 229 228 228 226 224 223 222 222 223 224 225 225 225 226 227 228 228 227 225 223 219 215 212 210 209 209 209 209 208 207 206 205 206 207 208 210 211 213 214 214 213 212 212 213 214 214 214 213 213 214 216 216 217 216 216 215 213 212 211 210
272 273 270 267 264 263 262 261 259 257 254 251 249 250 252 254 254 254 254 253 251 248 245 242 238 233 230 228 227 225 223 220 219 219 220 220 221 221 221 222 223 224 225 224 222 220 219 218 216 214 211 208 206 206 207 207 207 207 209 210 211 212 212 213 215 216 216 215 214 214 214 214 213 213 214 215 216 217 217 217 217 216 215 214 212 211
269 273 276 275 271 267 264 262 260 258 255 251 249 249 251 252 253 253 253 252 250 246 242 238 235 232 230 228 228 227 224 221 218 217 217 217 216 217 217 217 217 218 219 219 218 216 214 214 215 215 215 212 208 206 206 206 207 209 211 213 214 215 215 216 216 217 217 216 216 216 215 214 214 214 215 215 216 217 217 218 217 216 216 215 214 213
268 269 273 276 275 272 268 265 263 260 256 252 249 249 251 252 252 252 252 250 248 244 240 236 233 230 227 226 226 226 225 222 219 217 215 214 213 212 212 211 212 212 213 213 213 212 211 211 212 213 215 214 211 209 208 207 208 209 211 214 216 217 218 218 217 217 217 217 217 218 218 218 218 217 216 216 216 217 218 219 218 217 217 216 216 215
273 270 270 271 272 272 270 267 265 262 258 253 250 250 251 251 251 251 251 249 246 243 240 237 233 230 227 225 224 224 222 220 217 214 213 212 211 209 208 207 207 207 207 207 208 207 207 207 208 211 212 212 211 210 209 209 210 210 212 214 216 218 218 218 218 218 218 218 218 219 219 219 219 219 218 217 217 218 220 220 219 218 218 217 217 217
277 274 271 269 269 269 268 266 264 263 261 257 253 251 251 250 249 249 248 246 243 241 239 237 234 230 227 225 224 223 222 219 216 213 212 211 210 208 207 206 205 203 202 201 201 202 202 202 203 206 209 210 210 210 210 211 212 211 212 214 216 217 217 217 218 218 218 218 219 219 219 218 218 218 218 217 217 218 219 220 220 219 218 218 217 217
Height
1453 1453 1452 1452 1454 1455 1456 1458 1459 1460 1461 1461 1462 1463 1463 1464 1464 1465 1466 1466 1467 1467 1467 1467 1467 1467 1468 1468 1469 1469 1470 1470 1470 1471 1471 1471 1471 1471 1472 1472 1472 1472 1472 1472 1473 1473 1474 1474 1474 1474 1475 1476 1476 1477 1479 1480 1481 1480 1481 1483 1485 1486 1487 1488 1490 1492 1495 1496 1497 1498 1498 1500 1501 1502 1503 1504 1505 1506 1507 1509 1510 1511 1512 1513 1513 1514
1451 1451 1451 1450 1450 1451 1451 1453 1455 1456 1457 1458 1459 1459 1460 1461 1461 1461 1462 1462 1463 1463 1464 1464 1464 1464 1464 1464 1464 1465 1465 1465 1466 1466 1466 1466 1467 1467 1467 1468 1468 1468 1468 1469 1469 1470 1471 1471 1471 1471 1471 1472 1472 1474 1475 1477 1477 1478 1479 1481 1482 1484 1485 1486 1488 1490 1493 1495 1496 1496 1497 1498 1499 1501 1501 1502 1503 1504 1506 1507 1509 1510 1511 1512 1512 1512
1448 1448 1448 1448 1447 1447 1447 1448 1450 1451 1453 1454 1456 1457 1457 1458 1458 1458 1459 1460 1460 1460 1460 1461 1461 1460 1460 1460 1460 1461 1461 1461 1461 1461 1462 1462 1462 1463 1463 1464 1464 1464 1465 1465 1466 1467 1468 1469 1469 1469 1468 1468 1469 1470 1472 1474 1474 1475 1476 1478 1480 1481 1482 1484 1486 1488 1490 1493 1494 1495 1496 1496 1498 1499 1499 1500 1501 1502 1504 1506 1507 1509 1510 1511 1511 1511
1445 1445 1446 1446 1445 1443 1444 1445 1446 1448 1449 1451 1453 1454 1455 1455 1455 1456 1456 1457 1457 1457 1457 1457 1457 1456 1456 1456 1456 1456 1456 1457 1457 1457 1457 1458 1458 1459 1459 1460 1460 1461 1461 1462 1462 1463 1464 1466 1466 1466 1466 1466 1466 1467 1469 1470 1471 1472 1474 1476 1477 1479 1480 1482 1484 1486 1488 1491 1492 1493 1494 1495 1496 1497 1498 1498 1500 1501 1503 1505 1506 1508 1509 1510 1510 1511
1441 1441 1442 1442 1441 1440 1441 1442 1443 1445 1446 1448 1449 1451 1451 1451 1452 1453 1453 1454 1454 1454 1454 1453 1453 1453 1452 1452 1452 1452 1453 1453 1453 1454 1454 1454 1454 1455 1455 1456 1456 1457 1457 1458 1459 1460 1461 1462 1463 1463 1464 1464 1464 1465 1466 1467 1468 1470 1471 1473 1475 1476 1478 1480 1481 1484 1486 1488 1491 1492 1493 1494 1495 1495 1496 1497 1498 1500 1502 1504 1505 1506 1508 1508 1509 1509
1436 1437 1438 1438 1438 1438 1438 1439 1441 1442 1443 1445 1446 1447 1447 1448 1449 1449 1450 1450 1451 1451 1450 1450 1450 1450 1449 1449 1450 1450 1450 1451 1451 1451 1451 1451 1451 1451 1452 1452 1452 1453 1454 1454 1456 1456 1457 1458 1460 1461 1461 1461 1462 1463 1464 1465 1466 1467 1469 1471 1473 1474 1476 1477 1479 1481 1484 1486 1488 1490 1491 1492 1493 1494 1495 1496 1497 1499 1501 1503 1504 1505 1506 1507 1508 1508
1433 1433 1434 1435 1435 1436 1436 1437 1438 1439 1441 1442 1442 1443 1444 1445 1445 1446 1446 1446 1447 1447 1447 1447 1446 1446 1446 1447 1447 1447 1448 1448 1448 1448 1448 1448 1449 1449 1449 1449 1449 1450 1450 1451 1452 1453 1454 1455 1456 1458 1459 1460 1461 1461 1462 1463 1464 1465 1467 1469 1471 1472 1474 1476 1478 1480 1482 1485 1486 1488 1490 1491 1492 1493 1494 1495 1496 1498 1500 1501 1503 1504 1505 1506 1506 1507
1430 1431 1431 1432 1432 1433 1433 1434 1435 1436 1438 1439 1440 1440 1441 1441 1442 1442 1443 1443 1443 1443 1443 1443 1443 1443 1444 1444 1444 1445 1445 1445 1446 1446 1446 1446 1446 1446 1446 1446 1446 1446 1447 1447 1448 1450 1451 1452 1454 1455 1456 1457 1458 1459 1460 1461 1461 1463 1466 1467 1469 1471 1472 1474 1476 1478 1481 1483 1485 1486 1488 1490 1491 1492 1493 1494 1496 1497 1499 1500 1501 1503 1504 1504 1505 1506
1428 1428 1428 1429 1429 1430 1430 1431 1432 1433 1435 1436 1436 1437 1437 1438 1438 1439 1439 1439 1439 1440 1440 1440 1440 1440 1441 1441 1441 1442 1442 1443 1443 1443 1443 1444 1444 1444 1444 1443 1443 1443 1444 1445 1446 1446 1448 1449 1451 1452 1454 1455 1456 1457 1458 1458 1460 1462 1464 1466 1467 1469 1471 1473 1475 1477 1479 1481 1483 1485 1487 1488 1490 1491 1492 1494 1495 1496 1498 1499 1500 1501 1502 1503 1504 1505
1426 1426 1426 1426 1426 1427 1428 1428 1429 1430 1431 1432 1433 1433 1434 1435 1435 1436 1436 1436 1436 1436 1437 1437 1437 1437 1438 1438 1439 1439 1439 1440 1440 1441 1441 1441 1441 1441 1441 1441 1441 1441 1441 1442 1443 1444 1445 1447 1448 1450 1451 1452 1454 1455 1456 1456 1458 1460 1462 1464 1466 1468 1469 1471 1474 1476 1478 1480 1481 1483 1485 1486 1488 1490 1491 1492 1494 1495 1496 1497 1499 1500 1501 1502 1503 1503
1423 1424 1423 1424 1424 1425 1426 1426 1426 1427 1429 1430 1430 1430 1431 1431 1431 1432 1432 1432 1433 1434 1434 1434 1434 1434 1435 1435 1436 1436 1436 1437 1437 1437 1438 1438 1438 1438 1438 1438 1438 1438 1438 1439 1440 1441 1442 1444 1446 1447 1449 1451 1452 1453 1454 1455 1457 1459 1461 1463 1465 1466 1468 1470 1472 1475 1477 1479 1481 1482 1483 1485 1486 1488 1489 1491 1492 1494 1495 1496 1497 1498 1499 1501 1501 1502
1421 1421 1421 1421 1422 1423 1424 1424 1424 1425 1426 1427 1427 1427 1427 1427 1428 1429 1429 1430 1430 1431 1431 1431 1431 1432 1432 1432 1433 1433 1433 1433 1434 1434 1435 1435 1435 1435 1435 1435 1435 1435 1436 1437 1438 1439 1440 1442 1443 1445 1447 1449 1451 1452 1452 1454 1456 1458 1460 1462 1464 1465 1467 1469 1471 1474 1476 1478 1480 1481 1482 1484 1485 1487 1488 1490 1491 1492 1493 1495 1496 1497 1498 1499 1500 1501
1418 1419 1419 1420 1420 1421 1422 1422 1423 1423 1424 1424 1424 1424 1424 1425 1426 1427 1427 1427 1427 1428 1428 1428 1428 1429 1429 1430 1430 1430 1430 1430 1431 1431 1432 1432 1432 1433 1433 1433 1432 1433 1433 1434 1436 1437 1438 1440 1442 1443 1446 1448 1449 1450 1451 1453 1455 1457 1459 1461 1462 1464 1466 1468 1470 1473 1475 1477 1479 1480 1482 1483 1485 1486 1487 1489 1490 1491 1492 1493 1495 1496 1497 1498 1499 1500
1416 1417 1417 1417 1418 1419 1419 1420 1420 1421 1421 1421 1421 1422 1422 1423 1424 1424 1425 1425 1425 1426 1426 1426 1425 1425 1426 1426 1427 1427 1427 1428 1428 1428 1429 1429 1430 1430 1430 1430 1430 1430 1431 1432 1433 1434 1436 1438 1440 1442 1445 1446 1448 1449 1451 1452 1454 1456 1457 1459 1461 1463 1465 1467 1469 1471 1474 1476 1477 1479 1481 1482 1484 1485 1486 1487 1488 1490 1491 1492 1493 1495 1496 1497 1498 1499
1414 1414 1415 1415 1416 1416 1417 1417 1418 1418 1418 1419 1420 1420 1421 1421 1421 1421 1422 1422 1422 1423 1423 1423 1423 1422 1422 1423 1423 1424 1425 1425 1425 1426 1426 1426 1427 1427 1428 1428 1428 1428 1429 1430 1431 1432 1433 1436 1438 1441 1443 1445 1446 1447 1449 1451 1453 1455 1456 1458 1460 1461 1463 1466 1468 1470 1473 1474 1476 1477 1479 1481 1482 1483 1485 1486 1487 1488 1490 1491 1492 1493 1495 1496 1496 1497
1411 1412 1412 1412 1413 1414 1414 1415 1415 1416 1416 1417 1417 1418 1418 1418 1419 1419 1419 1420 1420 1421 1421 1421 1420 1420 1419 1419 1420 1421 1421 1422 1422 1423 1423 1423 1424 1425 1426 1426 1426 1427 1427 1428 1429 1430 1432 1434 1436 1439 1441 1442 1444 1446 1448 1450 1452 1454 1456 1457 1459 1460 1462 1464 1466 1469 1471 1473 1474 1476 1477 1479 1481 1482 1483 1485 1486 1487 1488 1490 1491 1492 1493 1494 1495 1496
1409 1409 1409 1410 1411 1411 1411 1412 1413 1413 1414 1414 1415 1415 1415 1416 1416 1416 1417 1417 1418 1418 1418 1418 1418 1417 1416 1416 1417 1418 1419 1419 1420 1420 1421 1421 1422 1422 1423 1424 1425 1425 1426 1426 1427 1429 1431 1433 1435 1437 1438 1440 1441 1444 1446 1448 1451 1453 1455 1456 1458 1460 1461 1463 1465 1467 1469 1471 1473 1474 1476 1477 1479 1481 1482 1483 1485 1486 1487 1488 1489 1491 1491 1492 1493 1494
1406 1406 1407 1407 1408 1408 1409 1410 1410 1411 1411 1412 1412 1412 1412 1413 1414 1414 1414 1415 1415 1415 1415 1415 1415 1415 1414 1413 1414 1415 1416 1417 1418 1418 1419 1419 1420 1421 1421 1422 1423 1424 1424 1425 1426 1428 1429 1431 1434 1435 1436 1438 1440 1442 1445 1447 1449 1451 1453 1455 1457 1458 1460 1462 1464 1466 1468 1470 1471 1473 1474 1476 1477 1479 1480 1482 1483 1485 1486 1487 1488 1489 1490 1491 1492 1493
1404 1404 1405 1405 1405 1406 1407 1407 1407 1408 1409 1409 1409 1410 1410 1411 1411 1411 1412 1412 1412 1413 1413 1413 1412 1412 1412 1412 1412 1412 1414 1415 1416 1416 1417 1417 1418 1419 1420 1421 1422 1423 1423 1424 1425 1427 1429 1431 1433 1434 1436 1437 1439 1441 1443 1445 1447 1449 1451 1453 1455 1457 1459 1461 1463 1465 1466 1468 1470 1471 1472 1474 1476 1477 1479 1480 1482 1483 1484 1485 1486 1487 1488 1489 1490 1491
1401 1401 1402 1402 1403 1404 1404 1404 1405 1405 1406 1406 1407 1407 1407 1408 1409 1409 1409 1410 1410 1410 1410 1410 1410 1410 1410 1410 1410 1411 1412 1413 1414 1415 1415 1416 1416 1417 1418 1419 1420 1421 1422 1423 1425 1426 1428 1430 1432 1434 1435 1437 1439 1441 1442 1444 1446 1447 1449 1451 1453 1455 1457 1459 1461 1463 1465 1466 1468 1469 1471 1472 1474 1475 1477 1478 1480 1481 1482 1484 1485 1486 1487 1488 1488 1489
1399 1399 1399 1400 1401 1401 1401 1401 1402 1403 1403 1404 1405 1405 1405 1406 1406 1406 1406 1407 1407 1408 1408 1408 1407 1408 1408 1408 1408 1409 1410 1411 1412 1413 1413 1414 1415 1416 1416 1417 1419 1420 1421 1422 1424 1425 1427 1429 1431 1432 1434 1436 1438 1440 1441 1443 1444 1446 1448 1449 1451 1453 1455 1457 1459 1461 1463 1465 1466 1467 1469 1470 1472 1473 1475 1477 1478 1480 1481 1482 1483 1484 1485 1486 1487 1488
1396 1396 1397 1398 1398 1398 1398 1399 1400 1400 1401 1401 1402 1402 1402 1403 1403 1404 1404 1405 1405 1405 1405 1405 1406 1406 1406 1406 1406 1407 1408 1409 1410 1411 1412 1413 1413 1414 1415 1416 1417 1418 1420 1421 1422 1424 1426 1428 1430 1431 1433 1435 1437 1439 1440 1441 1443 1445 1446 1448 1450 1451 1453 1455 1457 1459 1461 1462 1464 1466 1467 1469 1470 1472 1473 1475 1476 1478 1479 1480 1481 1482 1484 1485 1485 1486
1394 1394 1395 1395 1396 1396 1396 1397 1397 1398 1398 1398 1399 1399 1400 1400 1401 1401 1402 1402 1403 1403 1403 1403 1404 1404 1405 1405 1405 1406 1406 1407 1408 1409 1410 1411 1411 1412 1413 1414 1416 1417 1418 1420 1421 1423 1425 1427 1429 1431 1433 1435 1436 1437 1439 1440 1442 1443 1445 1446 1448 1450 1452 1454 1456 1457 1459 1461 1462 1464 1465 1467 1468 1470 1471 1473 1475 1476 1477 1478 1480 1481 1482 1483 1484 1485
1392 1392 1392 1393 1393 1394 1394 1395 1395 1395 1396 1396 1396 1397 1397 1398 1399 1399 1400 1400 1401 1401 1401 1401 1402 1402 1402 1403 1403 1404 1404 1405 1406 1407 1408 1409 1410 1411 1412 1413 1414 1416 1417 1419 1420 1422 1424 1426 1428 1430 1432 1433 1435 1436 1437 1439 1440 1441 1443 1445 1446 1448 1450 1452 1454 1456 1457 1459 1460 1462 1463 1465 1467 1468 1470 1471 1473 1474 1475 1476 1478 1479 1480 1481 1482 1483
1389 1389 1390 1390 1391 1391 1392 1392 1392 1393 1393 1393 1394 1395 1395 1396 1396 1397 1397 1398 1398 1398 1399 1399 1400 1400 1400 1400 1401 1401 1402 1403 1404 1405 1406 1407 1408 1409 1410 1411 1412 1414 1415 1417 1419 1421 1422 1425 1427 1429 1430 1432 1433 1435 1436 1437 1438 1440 1441 1443 1445 1446 1449 1451 1452 1454 1455 1457 1459 1460 1462 1463 1465 1466 1468 1470 1471 1472 1474 1475 1476 1477 1479 1480 1481 1482
1386 1386 1387 1387 1388 1388 1389 1389 1390 1390 1391 1391 1392 1392 1393 1394 1394 1394 1395 1395 1395 1396 1396 1397 1397 1397 1397 1398 1398 1399 1400 1401 1401 1402 1404 1405 1406 1407 1409 1410 1411 1412 1413 1416 1417 1419 1421 1423 1425 1427 1429 1430 1431 1433 1434 1436 1437 1438 1440 1441 1443 1445 1447 1449 1450 1452 1454 1455 1457 1459 1460 1462 1463 1465 1466 1468 1469 1471 1472 1473 1475 1476 1477 1478 1479 1480
1383 1383 1383 1384 1384 1385 1386 1386 1387 1387 1388 1389 1389 1390 1391 1391 1391 1391 1391 1391 1392 1393 1394 1394 1394 1395 1395 1396 1396 1396 1397 1399 1399 1400 1401 1402 1404 1406 1407 1408 1409 1410 1412 1414 1416 1418 1420 1422 1423 1425 1426 1428 1430 1431 1433 1434 1435 1436 1438 1440 1441 1444 1445 1447 1449 1450 1452 1454 1455 1457 1459 1460 1462 1463 1465 1466 1468 1469 1470 1471 1473 1474 1476 1476 1477 1478
1379 1380 1380 1380 1381 1381 1382 1382 1383 1384 1385 1386 1386 1387 1388 1388 1388 1388 1388 1388 1389 1390 1391 1391 1392 1392 1392 1392 1393 1394 1395 1396 1397 1398 1399 1401 1402 1403 1405 1406 1407 1408 1410 1412 1414 1416 1418 1420 1422 1423 1425 1426 1427 1429 1431 1432 1433 1435 1436 1438 1440 1442 1444 1446 1447 1449 1451 1452 1454 1455 1457 1458 1460 1461 1463 1465 1466 1467 1469 1470 1471 1472 1474 1475 1476 1477
1376 1376 1376 1376 1377 1377 1378 1379 1380 1381 1381 1382 1383 1384 1384 1384 1384 1384 1384 1386 1387 1388 1388 1388 1389 1390 1390 1390 1391 1392 1393 1394 1395 1395 1397 1399 1401 1401 1402 1404 1405 1406 1408 1410 1412 1415 1416 1418 1420 1421 1423 1424 1426 1427 1428 1430 1431 1433 1435 1437 1439 1441 1442 1444 1446 1447 1449 1451 1452 1454 1455 1457 1458 1460 1461 1463 1464 1466 1467 1468 1470 1471 1472 1473 1474 1475
1373 1373 1373 1373 1373 1374 1375 1375 1376 1377 1378 1379 1380 1381 1381 1380 1381 1381 1382 1383 1384 1385 1385 1386 1386 1387 1388 1389 1389 1390 1390 1391 1391 1393 1394 1396 1398 1399 1400 1401 1402 1403 1405 1407 1410 1413 1415 1416 1417 1419 1420 1421 1423 1424 1425 1427 1428 1431 1432 1435 1437 1439 1441 1442 1444 1446 1447 1449 1451 1452 1454 1455 1457 1458 1460 1461 1463 1464 1466 1467 1468 1469 1470 1471 1472 1473
1370 1370 1371 1370 1371 1371 1371 1372 1373 1374 1375 1376 1376 1377 1377 1377 1377 1378 1379 1380 1381 1381 1382 1383 1384 1384 1385 1386 1386 1387 1386 1387 1388 1390 1391 1393 1394 1395 1396 1398 1399 1401 1402 1404 1406 1409 1411 1413 1415 1416 1417 1419 1420 1421 1423 1424 1426 1427 1430 1432 1434 1436 1439 1441 1442 1444 1446 1447 1449 1451 1452 1454 1455 1456 1458 1460 1461 1462 1464 1465 1466 1467 1468 1470 1471 1471
1367 1367 1367 1367 1368 1368 1368 1369 1369 1370 1371 1372 1373 1373 1373 1374 1374 1375 1376 1376 1377 1378 1379 1380 1381 1381 1382 1382 1383 1383 1382 1383 1385 1386 1388 1391 1391 1392 1393 1395 1396 1398 1400 1401 1403 1404 1406 1409 1411 1413 1415 1416 1417 1418 1420 1422 1424 1425 1427 1430 1432 1434 1436 1438 1441 1442 1444 1446 1447 1449 1451 1452 1453 1455 1456 1458 1459 1461 1462 1463 1464 1465 1466 1468 1469 1470
1364 1364 1364 1364 1365 1365 1365 1366 1366 1367 1367 1368 1369 1370 1370 1371 1371 1371 1372 1373 1374 1375 1376 1376 1377 1378 1379 1379 1380 1380 1381 1381 1381 1383 1385 1387 1388 1389 1390 1392 1394 1396 1397 1400 1401 1402 1403 1404 1406 1409 1411 1413 1414 1416 1417 1420 1421 1423 1426 1428 1430 1432 1434 1436 1438 1440 1442 1444 1446 1447 1449 1450 1451 1453 1455 1456 1457 1459 1460 1461 1462 1463 1465 1466 1467 1468
1362 1362 1362 1362 1362 1362 1362 1363 1363 1363 1364 1365 1366 1366 1367 1367 1368 1369 1369 1370 1371 1371 1372 1373 1374 1375 1375 1376 1377 1378 1378 1378 1379 1380 1383 1384 1385 1386 1387 1388 1390 1392 1395 1397 1399 1400 1401 1401 1403 1406 1408 1410 1411 1413 1415 1417 1419 1421 1424 1426 1428 1430 1432 1434 1436 1437 1439 1441 1443 1445 1446 1448 1449 1451 1452 1454 1456 1457 1458 1459 1460 1462 1463 1464 1465 1466
1359 1359 1359 1360 1360 1360 1360 1360 1361 1361 1361 1362 1362 1363 1364 1364 1365 1366 1366 1367 1367 1368 1369 1370 1371 1371 1372 1373 1373 1374 1375 1375 1376 1377 1379 1381 1381 1382 1384 1385 1386 1388 1391 1393 1395 1397 1398 1399 1401 1402 1404 1407 1409 1411 1413 1415 1417 1419 1421 1424 1426 1428 1430 1431 1433 1435 1437 1439 1441 1442 1444 1446 1447 1449 1450 1452 1453 1455 1456 1457 1459 1460 1461 1462 1463 1464
1356 1356 1356 1356 1357 1357 1357 1357 1358 1358 1358 1359 1359 1360 1361 1361 1362 1363 1363 1364 1365 1366 1366 1367 1368 1369 1369 1370 1371 1371 1372 1372 1373 1375 1376 1377 1378 1380 1381 1381 1382 1385 1387 1389 1391 1393 1394 1396 1398 1400 1401 1403 1405 1408 1410 1412 1414 1417 1419 1422 1424 1426 1427 1429 1431 1433 1435 1437 1439 1440 1442 1443 1445 1446 1448 1450 1451 1453 1454 1456 1457 1458 1459 1461 1461 1462
1353 1353 1353 1353 1354 1354 1354 1354 1355 1355 1356 1356 1356 1357 1358 1359 1359 1360 1361 1361 1362 1363 1363 1365 1366 1366 1367 1368 1368 1369 1370 1370 1371 1372 1373 1375 1376 1376 1377 1378 1379 1381 1383 1386 1388 1390 1391 1393 1396 1398 1399 1400 1401 1403 1406 1409 1412 1414 1417 1419 1421 1423 1425 1427 1429 1431 1433 1435 1436 1438 1440 1441 1443 1444 1446 1448 1450 1451 1452 1454 1455 1456 1458 1459 1460 1461
1351 1350 1350 1350 1351 1351 1351 1351 1352 1352 1353 1354 1354 1355 1355 1356 1357 1358 1358 1359 1360 1360 1361 1362 1363 1364 1364 1365 1366 1367 1367 1367 1368 1370 1371 1372 1372 1373 1374 1375 1376 1378 1380 1382 1384 1386 1388 1390 1392 1395 1396 1397 1398 1400 1402 1405 1408 1411 1414 1416 1418 1420 1422 1425 1426 1429 1431 1432 1434 1436 1437 1439 1441 1442 1444 1446 1447 1449 1450 1451 1453 1454 1456 1457 1458 1460
1348 1347 1347 1347 1348 1348 1349 1349 1349 1350 1351 1351 1352 1352 1353 1354 1355 1355 1356 1356 1357 1358 1358 1359 1360 1361 1362 1363 1364 1364 1364 1365 1366 1367 1368 1369 1370 1371 1371 1372 1374 1376 1378 1381 1382 1384 1385 1386 1388 1390 1392 1394 1396 1398 1401 1403 1405 1408 1411 1414 1416 1418 1420 1422 1424 1426 1428 1430 1432 1434 1435 1437 1438 1440 1442 1443 1445 1446 1447 1449 1450 1452 1453 1455 1456 1458
1345 1345 1344 1345 1345 1346 1346 1346 1346 1347 1348 1349 1350 1350 1351 1351 1352 1353 1353 1354 1355 1355 1356 1357 1358 1359 1359 1360 1361 1361 1362 1362 1363 1364 1365 1366 1367 1368 1369 1370 1371 1373 1376 1378 1380 1382 1383 1385 1386 1388 1390 1391 1393 1395 1397 1400 1403 1405 1408 1410 1413 1415 1417 1420 1422 1424 1426 1428 1429 1431 1432 1434 1436 1438 1439 1441 1442 1444 1445 1446 1448 1449 1451 1452 1454 1455
1343 1342 1341 1341 1342 1343 1343 1343 1344 1345 1346 1346 1347 1347 1348 1348 1349 1350 1351 1351 1351 1352 1353 1354 1355 1356 1357 1358 1359 1359 1360 1360 1361 1362 1363 1363 1365 1366 1366 1368 1369 1371 1373 1376 1378 1380 1381 1383 1385 1387 1389 1390 1391 1393 1395 1397 1400 1402 1405 1407 1409 1411 1414 1416 1419 1421 1424 1425 1427 1429 1430 1432 1434 1435 1437 1439 1440 1442 1443 1445 1446 1448 1449 1450 1451 1452
1340 1339 1338 1339 1340 1340 1341 1341 1341 1342 1343 1344 1344 1344 1344 1345 1346 1347 1347 1348 1348 1349 1350 1351 1352 1353 1354 1355 1356 1356 1357 1358 1358 1359 1360 1361 1362 1363 1365 1366 1367 1369 1371 1373 1376 1377 1380 1381 1383 1385 1386 1388 1390 1391 1394 1396 1398 1401 1403 1405 1407 1410 1413 1415 1417 1419 1421 1423 1425 1426 1428 1430 1431 1433 1435 1436 1438 1440 1441 1443 1445 1446 1447 1448 1450 1451
1337 1336 1336 1336 1337 1337 1338 1339 1339 1339 1340 1341 1341 1341 1341 1342 1343 1344 1344 1345 1345 1346 1346 1348 1349 1350 1351 1351 1352 1353 1354 1355 1356 1357 1358 1359 1360 1361 1362 1363 1365 1366 1369 1371 1373 1375 1377 1380 1381 1383 1385 1386 1388 1390 1391 1394 1396 1399 1401 1404 1406 1408 1410 1412 1414 1416 1418 1420 1422 1424 1425 1427 1429 1431 1433 1434 1436 1438 1440 1441 1443 1444 1446 1446 1448 1449
1335 1334 1334 1334 1334 1335 1336 1336 1336 1336 1336 1337 1338 1338 1338 1339 1340 1341 1341 1342 1342 1343 1344 1345 1346 1347 1348 1349 1349 1350 1351 1352 1353 1354 1355 1356 1358 1359 1360 1361 1363 1365 1366 1368 1370 1373 1376 1378 1380 1381 1383 1385 1386 1388 1390 1392 1394 1396 1399 1401 1403 1405 1406 1408 1410 1413 1416 1417 1419 1421 1423 1425 1426 1429 1431 1432 1434 1436 1437 1439 1441 1442 1444 1445 1446 1447
1332 1331 1331 1331 1331 1332 1332 1332 1332 1333 1333 1334 1334 1335 1336 1336 1337 1338 1339 1339 1340 1341 1341 1342 1343 1345 1345 1345 1346 1347 1348 1349 1350 1351 1353 1354 1356 1357 1358 1359 1361 1362 1364 1366 1368 1370 1372 1375 1376 1379 1381 1382 1384 1386 1388 1390 1392 1395 1397 1399 1401 1404 1406 1407 1409 1411 1412 1414 1416 1418 1420 1422 1424 1426 1428 1430 1432 1433 1435 1436 1438 1440 1441 1443 1444 1446
1331 1330 1329 1328 1328 1329 1329 1329 1329 1330 1330 1331 1331 1331 1332 1333 1334 1335 1336 1336 1337 1338 1338 1339 1340 1341 1341 1341 1342 1344 1345 1346 1347 1348 1350 1351 1353 1355 1356 1357 1359 1360 1362 1364 1366 1368 1370 1371 1373 1376 1378 1380 1382 1384 1386 1388 1390 1393 1395 1397 1400 1402 1404 1406 1407 1408 1410 1412 1414 1416 1418 1420 1422 1424 1426 1427 1429 1431 1433 1434 1436 1438 1439 1441 1442 1443
1329 1329 1327 1326 1326 1326 1326 1326 1327 1327 1327 1327 1327 1328 1329 1330 1331 1332 1333 1333 1334 1335 1336 1336 1337 1337 1337 1338 1339 1341 1341 1342 1343 1345 1346 1348 1350 1351 1353 1355 1357 1359 1361 1363 1365 1367 1369 1371 1372 1373 1375 1377 1379 1382 1384 1386 1388 1391 1392 1395 1397 1399 1401 1402 1404 1406 1408 1410 1411 1413 1415 1417 1420 1422 1423 1425 1427 1429 1431 1432 1434 1436 1437 1439 1440 1441
1326 1326 1325 1325 1324 1324 1323 1323 1324 1324 1324 1324 1325 1325 1326 1327 1328 1329 1330 1330 1331 1332 1333 1333 1334 1334 1335 1336 1336 1337 1338 1339 1340 1341 1342 1344 1346 1348 1350 1352 1355 1357 1359 1361 1364 1366 1368 1370 1371 1372 1373 1374 1376 1378 1381 1383 1386 1388 1390 1392 1394 1396 1397 1399 1401 1403 1406 1407 1409 1411 1412 1414 1416 1418 1421 1422 1425 1426 1428 1430 1432 1434 1435 1436 1438 1439
1324 1323 1323 1322 1322 1321 1321 1321 1321 1321 1321 1321 1322 1322 1323 1323 1325 1326 1326 1327 1328 1329 1330 1330 1330 1331 1332 1333 1333 1334 1336 1336 1337 1338 1339 1341 1343 1345 1347 1349 1352 1354 1357 1359 1362 1364 1366 1368 1369 1371 1372 1374 1375 1376 1378 1381 1383 1386 1388 1390 1392 1393 1395 1397 1399 1401 1403 1405 1407 1408 1410 1412 1414 1416 1418 1420 1422 1424 1425 1427 1429 1431 1433 1434 1436 1437
1321 1321 1321 1321 1320 1319 1319 1319 1319 1319 1319 1319 1319 1320 1320 1321 1321 1322 1323 1324 1325 1326 1326 1326 1327 1328 1329 1330 1330 1331 1333 1334 1335 1336 1336 1337 1339 1341 1343 1346 1348 1351 1353 1356 1359 1361 1364 1366 1367 1369 1371 1372 1374 1375 1376 1378 1381 1383 1386 1387 1389 1391 1393 1394 1396 1398 1400 1402 1404 1406 1409 1411 1413 1415 1416 1418 1419 1421 1423 1425 1427 1428 1430 1432 1434 1435
1320 1319 1319 1319 1318 1317 1317 1317 1317 1317 1317 1317 1317 1317 1317 1317 1318 1319 1320 1321 1322 1322 1323 1323 1324 1325 1326 1327 1327 1328 1329 1330 1331 1332 1333 1334 1336 1338 1340 1342 1344 1346 1349 1352 1356 1358 1361 1363 1365 1367 1369 1370 1371 1372 1374 1376 1377 1380 1382 1384 1386 1388 1390 1392 1394 1396 1398 1400 1402 1404 1406 1408 1411 1412 1414 1415 1417 1419 1421 1422 1424 1426 1427 1429 1431 1433